Date String (YYYY-MM-DD hh:mm:ss) UTC,Instrument flags,Ambient pressure (hPa),Sample flow (lpm),Bypass flow (lpm),Sample temperature (°C),Ambient temperature (°C),ASC tube jacket temperature (°C),LED temperature (°C),Box temperature (°C),Sample RH (%),Span deviation,Mass concentration (μg/m³),Mass concentration (μg/m³),Mass concentration (μg/m³)
DateTimeUTC,F1_M11,P_M11,Q1_M11,Q2_M11,T1_M11,T2_M11,T3_M11,T4_M11,T5_M11,U1_M11,ZSPAN_M11,X0_M11,X2_M11,X1_M11
2021-09-27 00:00:00,,0824.9,5.00,0.00,29.2,26.8,00.0,38.1,30.7,11.7,0002.8,0015.99,0006.72,0005.82
2021-09-27 00:01:00,,0824.8,5.00,0.00,29.0,25.5,00.0,38.1,30.3,11.8,0002.9,0015.44,0006.70,0005.83
2021-09-27 00:02:00,,0824.8,5.00,0.00,28.9,25.8,00.0,38.1,30.4,12.0,0002.7,0015.52,0006.73,0005.83
2021-09-27 00:03:00,,0824.9,5.01,0.00,28.9,26.2,00.0,38.0,30.5,12.1,0003.2,0014.87,0006.73,0005.83
2021-09-27 00:04:00,,0824.9,4.99,0.00,28.9,26.7,00.0,38.0,30.6,11.9,0003.5,0014.75,0006.66,0005.81
2021-09-27 00:05:00,,0824.9,5.01,0.00,28.9,27.2,00.0,38.0,30.7,11.9,0003.6,0015.33,0006.71,0005.83
2021-09-27 00:06:00,,0824.9,4.99,0.00,29.0,27.5,00.0,38.0,30.9,11.8,0003.3,0016.06,0006.74,0005.83
2021-09-27 00:07:00,,0824.9,4.99,0.00,29.1,27.9,00.0,38.0,31.0,12.0,0002.9,0015.86,0006.76,0005.83
2021-09-27 00:08:00,,0824.9,5.01,0.00,29.1,28.1,00.0,38.1,31.1,12.0,0002.6,0016.10,0006.82,0005.86
2021-09-27 00:09:00,,0824.9,5.00,0.00,29.2,27.7,00.0,38.1,31.0,11.8,0002.6,0015.82,0006.88,0005.90
2021-09-27 00:10:00,,0824.9,5.01,0.00,29.0,25.9,00.0,38.1,30.4,11.8,0002.4,0015.60,0006.91,0005.93
2021-09-27 00:11:00,,0824.9,4.99,0.00,28.9,25.4,00.0,38.0,30.2,11.8,0002.4,0015.84,0006.96,0005.95
2021-09-27 00:12:00,,0824.9,5.01,0.00,28.8,25.8,00.0,38.0,30.3,11.8,0001.9,0015.44,0007.02,0005.98
2021-09-27 00:13:00,,0824.9,4.99,0.00,28.8,26.3,00.0,38.0,30.4,11.8,0001.9,0015.31,0007.06,0006.01
2021-09-27 00:14:00,,0824.9,5.01,0.00,28.8,26.8,00.0,38.0,30.6,11.8,0001.4,0015.52,0007.09,0006.02
2021-09-27 00:15:00,,0824.9,5.00,0.00,28.9,27.2,00.0,38.0,30.7,11.9,0001.0,0016.29,0007.15,0006.04
2021-09-27 00:16:00,,0824.9,4.99,0.00,28.9,27.6,00.0,38.0,30.8,11.9,0001.1,0016.26,0007.19,0006.03
2021-09-27 00:17:00,,0824.9,5.01,0.00,29.0,27.9,00.0,38.0,30.9,11.9,0001.1,0015.69,0007.20,0006.03
2021-09-27 00:18:00,,0824.9,5.00,0.00,29.1,28.2,00.0,38.0,31.0,12.0,0001.5,0016.22,0007.22,0006.04
2021-09-27 00:19:00,,0824.9,4.99,0.00,29.1,27.9,00.0,38.0,31.0,12.1,0001.9,0016.40,0007.21,0006.03
2021-09-27 00:20:00,,0824.9,4.99,0.00,29.0,26.1,00.0,38.0,30.5,12.2,0001.2,0016.66,0007.16,0006.00
2021-09-27 00:21:00,,0825.0,5.00,0.00,28.9,25.3,00.0,38.0,30.2,12.3,0001.0,0017.33,0007.20,0005.96
2021-09-27 00:22:00,,0824.9,5.00,0.00,28.8,25.7,00.0,38.0,30.3,12.1,0001.3,0017.79,0007.23,0005.92
2021-09-27 00:23:00,,0824.9,5.00,0.00,28.8,26.2,00.0,37.9,30.4,12.2,0001.1,0018.94,0007.18,0005.87
2021-09-27 00:24:00,,0824.9,5.01,0.00,28.8,26.7,00.0,37.9,30.5,12.3,0001.4,0020.93,0007.11,0005.81
2021-09-27 00:25:00,,0824.9,4.99,0.00,28.8,27.1,00.0,37.9,30.6,12.2,0001.3,0022.83,0007.07,0005.77
2021-09-27 00:26:00,,0824.9,4.99,0.00,28.9,27.5,00.0,37.9,30.8,12.2,0002.0,0022.47,0007.07,0005.72
2021-09-27 00:27:00,,0824.9,5.00,0.00,29.0,27.8,00.0,37.9,30.9,12.1,0002.0,0021.82,0007.00,0005.68
2021-09-27 00:28:00,,0824.9,5.00,0.00,29.0,28.0,00.0,38.0,31.0,12.0,0002.1,0021.99,0006.97,0005.62
2021-09-27 00:29:00,,0824.9,5.00,0.00,29.1,28.3,00.0,38.0,31.1,11.9,0002.5,0022.65,0006.94,0005.56
2021-09-27 00:30:00,,0824.9,5.01,0.00,29.2,28.5,00.0,38.0,31.2,11.8,0002.1,0022.07,0006.89,0005.53
2021-09-27 00:31:00,,0824.9,5.01,0.00,29.2,28.4,00.0,38.0,31.2,11.9,0002.3,0022.49,0006.88,0005.51
2021-09-27 00:32:00,,0824.9,4.99,0.00,29.2,26.8,00.0,38.1,30.7,11.9,0002.5,0022.57,0006.87,0005.51
2021-09-27 00:33:00,,0824.9,5.00,0.00,29.0,25.5,00.0,38.0,30.4,12.3,0002.5,0021.88,0006.81,0005.52
2021-09-27 00:34:00,,0824.9,5.00,0.00,28.9,25.7,00.0,38.0,30.4,12.6,0002.7,0020.62,0006.82,0005.52
2021-09-27 00:35:00,,0824.9,5.01,0.00,28.9,26.2,00.0,38.0,30.5,12.7,0002.6,0018.45,0006.81,0005.52
2021-09-27 00:36:00,,0825.0,4.99,0.00,28.9,26.7,00.0,38.0,30.6,12.8,0002.5,0016.51,0006.77,0005.51
2021-09-27 00:37:00,,0824.9,5.01,0.00,28.9,27.1,00.0,38.0,30.7,12.7,0002.3,0016.32,0006.72,0005.51
2021-09-27 00:38:00,,0825.0,5.01,0.00,29.0,27.5,00.0,38.0,30.8,12.7,0002.5,0016.91,0006.67,0005.51
2021-09-27 00:39:00,,0825.0,4.99,0.00,29.0,27.8,00.0,38.0,30.9,12.7,0002.8,0016.57,0006.60,0005.50
2021-09-27 00:40:00,,0825.0,5.01,0.00,29.1,28.1,00.0,38.0,31.0,12.7,0002.2,0016.18,0006.51,0005.48
2021-09-27 00:41:00,,0825.0,5.01,0.00,29.2,28.3,00.0,38.0,31.1,12.7,0002.5,0016.00,0006.49,0005.45
2021-09-27 00:42:00,,0825.1,4.99,0.00,29.2,28.5,00.0,38.1,31.2,12.7,0002.9,0015.78,0006.46,0005.44
2021-09-27 00:43:00,,0825.1,4.99,0.00,29.3,28.6,00.0,38.1,31.3,12.6,0002.9,0015.36,0006.45,0005.43
2021-09-27 00:44:00,,0825.0,5.00,0.00,29.3,28.4,00.0,38.1,31.2,12.6,0003.0,0015.10,0006.46,0005.43
2021-09-27 00:45:00,,0825.0,5.01,0.00,29.2,26.5,00.0,38.1,30.7,12.7,0003.5,0014.94,0006.44,0005.40
2021-09-27 00:46:00,,0825.0,5.00,0.00,29.1,25.5,00.0,38.1,30.4,12.9,0003.6,0014.90,0006.46,0005.41
2021-09-27 00:47:00,,0825.0,4.98,0.00,29.0,25.8,00.0,38.1,30.5,13.1,0003.6,0015.83,0006.44,0005.41
2021-09-27 00:48:00,,0825.0,5.00,0.00,29.0,26.3,00.0,38.1,30.6,13.1,0003.3,0016.53,0006.42,0005.40
2021-09-27 00:49:00,,0825.1,5.00,0.00,29.0,26.8,00.0,38.0,30.7,13.0,0003.4,0015.57,0006.42,0005.41
2021-09-27 00:50:00,,0825.1,5.00,0.00,29.0,27.2,00.0,38.0,30.8,13.0,0004.0,0014.70,0006.40,0005.40
2021-09-27 00:51:00,,0825.1,5.01,0.00,29.1,27.6,00.0,38.0,30.9,12.9,0004.0,0014.08,0006.39,0005.39
2021-09-27 00:52:00,,0825.1,4.99,0.00,29.1,27.9,00.0,38.1,31.0,12.9,0003.6,0014.10,0006.42,0005.39
2021-09-27 00:53:00,,0825.1,5.00,0.00,29.2,28.1,00.0,38.1,31.1,12.8,0003.2,0014.74,0006.41,0005.39
2021-09-27 00:54:00,,0825.1,5.00,0.00,29.2,28.3,00.0,38.1,31.2,12.7,0003.0,0015.22,0006.41,0005.38
2021-09-27 00:55:00,,0825.1,4.98,0.00,29.3,28.5,00.0,38.1,31.2,12.7,0002.2,0015.20,0006.40,0005.37
2021-09-27 00:56:00,,0825.1,4.99,0.00,29.3,28.7,00.0,38.2,31.3,12.6,0001.5,0015.76,0006.35,0005.37
2021-09-27 00:57:00,,0825.1,5.02,0.00,29.4,28.0,00.0,38.2,31.1,12.5,0001.0,0017.57,0006.28,0005.36
2021-09-27 00:58:00,,0825.1,4.99,0.00,29.2,25.9,00.0,38.2,30.6,12.6,0001.9,0017.26,0006.27,0005.34
2021-09-27 00:59:00,,0825.1,5.00,0.00,29.1,25.4,00.0,38.2,30.4,12.6,0002.1,0016.40,0006.25,0005.33
